ELNO2: N. Canadian River, El Reno, OK

Data processed at Fri Dec 08 2017 23:24


All information presented herein is the property of the government of the United States of America and may be revised or deleted at any time without prior notice.
Dissemination of this information without the expressed written consent of the Public Affairs Office, Tulsa District U.S. Army Corps of Engineers is strictly prohibited.
These data are gathered electronically and, as presented, have not undergone any form of quality control. These data are not guaranteed to be valid or correct.
Go to home page.
Go to station list.

Upstream stations:

Downstream station:
Previous Day
Next Day
Current Day
    
SHEF ID:       ELNO2     North Canadian River near El Ren
STATION TYPE:  

               PRECIP     STAGE  STAGE(2)  RIV-FLOW  WTR-TEMP   CONDUCT  BAT-LOAD
                   in        ft        ft       cfs         F   umho/cm      volt
              Ccp-Rev   Ccp-Rev   Ccp-Rev   Ccp-Rev   Ccp-Rev   Ccp-Rev   Ccp-Rev
(US/Central)
12/06 00:00      0.00      3.64      ----        50     44.19       562     12.57
12/06 01:00      0.00      3.64      ----        50     43.61       565     12.57
12/06 02:00      0.00      3.63      ----        49     43.05       568     12.49
12/06 03:00      0.00      3.63      ----        49     42.55       571     12.41
12/06 04:00      0.00      3.63      ----        49     42.03       577     12.41
12/06 05:00      0.00      3.63      ----        49     41.50       584     12.33
12/06 06:00      0.00      3.62      ----        48     41.00       590     12.33
12/06 07:00      0.00      3.62      ----        48     40.50       598     12.33
12/06 08:00      0.00      3.62      ----        48     40.05       610     12.33
12/06 09:00      0.00      3.62      ----        48     39.92       611     13.29
12/06 10:00      0.00      3.61      ----        48     40.19       610     13.44
12/06 11:00      0.00      3.61      ----        48     41.29       612     13.53
12/06 12:00      0.00      3.61      ----        48     42.91       617     13.53
12/06 13:00      0.00      3.61      ----        48     44.58       621     13.53
12/06 14:00      0.00      3.61      ----        48     45.73       621     13.60
12/06 15:00      0.00      3.61      ----        48     46.15       618     13.60
12/06 16:00      0.00      3.62      ----        48     45.90       613     13.60
12/06 17:00      0.00      3.62      ----        48     45.12       606     13.44
12/06 18:00      0.00      3.62      ----        48     44.53       600     13.05
12/06 19:00      0.00      3.62      ----        48     44.33       597     12.81
12/06 20:00      0.00      3.62      ----        48     44.11       595     12.73
12/06 21:00      0.00      3.62      ----        48     43.74       591     12.65
12/06 22:00      0.00      3.62      ----        48     43.27       589     12.65
12/06 23:00      0.00      3.62      ----        48     42.93       586     12.65